www.pogodaiklimat.ru
Время
(UTC), дата
10 10.01
11 10.01
12 10.01
13 10.01
14 10.01
15 10.01
16 10.01
17 10.01
18 10.01
19 10.01
20 10.01
21 10.01
22 10.01
23 10.01
00 11.01
01 11.01
02 11.01
03 11.01
04 11.01
05 11.01
06 11.01
07 11.01
08 11.01
09 11.01
10 11.01
11 11.01
12 11.01
13 11.01
14 11.01
15 11.01
16 11.01
17 11.01
18 11.01
19 11.01
20 11.01
21 11.01
22 11.01
23 11.01
00 12.01
01 12.01
02 12.01
03 12.01
04 12.01
05 12.01
06 12.01
07 12.01
08 12.01
09 12.01
10 12.01
11 12.01
12 12.01
13 12.01
14 12.01
15 12.01
16 12.01
17 12.01
18 12.01
19 12.01
20 12.01
21 12.01
22 12.01
23 12.01
00 13.01
01 13.01
02 13.01
03 13.01
04 13.01
05 13.01
06 13.01
07 13.01
08 13.01
09 13.01
10 13.01
11 13.01
12 13.01
13 13.01
14 13.01
15 13.01
16 13.01
17 13.01
18 13.01
19 13.01
20 13.01
21 13.01
22 13.01
23 13.01
00 14.01
01 14.01
02 14.01
03 14.01
04 14.01
05 14.01
06 14.01
07 14.01
08 14.01
09 14.01
10 14.01
11 14.01
12 14.01
13 14.01
14 14.01
15 14.01
16 14.01
17 14.01
18 14.01
19 14.01
20 14.01
21 14.01
22 14.01
23 14.01
00 15.01
01 15.01
02 15.01
03 15.01
04 15.01
05 15.01
06 15.01
07 15.01
08 15.01
09 15.01
10 15.01
11 15.01
12 15.01
13 15.01
14 15.01
15 15.01
16 15.01
17 15.01
18 15.01
19 15.01
20 15.01
21 15.01
22 15.01
23 15.01
00 16.01
01 16.01
02 16.01
03 16.01
04 16.01
05 16.01
06 16.01
07 16.01
08 16.01
09 16.01
10 16.01
11 16.01
12 16.01
13 16.01
14 16.01
15 16.01
16 16.01
17 16.01
18 16.01
19 16.01
20 16.01
21 16.01
22 16.01
23 16.01
00 17.01
01 17.01
02 17.01
03 17.01
04 17.01
05 17.01
06 17.01
07 17.01
08 17.01
09 17.01
Ветер
(напр.,м/с)
Видим. Явления Облачность Т
(С)
Тd
(С)
f
(%)
Тe
(С)
Тes
(С)
Комфортность P
(гПа)
Po
(гПа)
Тmin
(С)
Tmax
(С)
R
(мм)
R24
(мм)
S
(см)
Ю 4 3600 м н/о -4.3 -5.5 91 -11 -11 холодно 1017.9 1013.6 0.2
Ю 4 15 км н/о -4.0 -5.5 89 -10 -10 по сезону 1017.6 1013.3 0.1
Ю 4 11 км слаб. ливневой снег 10/10 200 м
[Cb cap As trans]
-3.7 -5.1 90 -10 -10 по сезону 1017.2 1012.9 0.1
Ю 4 2700 м н/о -3.8 -4.9 92 -10 -10 по сезону 1017.1 1012.8 0.2
Ю 4 14 км н/о -3.8 -5.0 91 -10 -10 тепло 1016.8 1012.5 0.2
Ю 4 35 км позёмок {ливн. снег} 8/6 200 м
[Cb cap As trans]
-3.6 -5.0 90 -10 -10 по сезону 1016.6 1012.3 0.1
Ю 4 28 км н/о -3.3 -4.7 90 -10 -10 по сезону 1016.2 1012.0
Ю 4 30 км н/о -3.0 -4.2 91 -9 -9 тепло 1015.9 1011.6
Ю 4 35 км слаб. ливневой снег {метель} 8/8 200 м
[Cb cap Cs]
-2.5 -4.0 89 -9 -9 по сезону 1015.6 1011.4 -5.0 -2.5
Ю 4 30 км н/о -2.2 -3.8 89 -8 -8 тепло 1015.3 1011.1
Ю 4 35 км н/о -2.0 -3.4 90 -8 -8 тепло 1014.8 1010.6
Ю 5 35 км слаб. ливневой снег 8/6 600 м
[Cb cap As op Ci sp]
-1.3 -2.9 89 -8 -8 по сезону 1014.4 1010.2
Ю 4 35 км н/о -1.2 -2.9 88 -7 -7 тепло 1013.8 1009.6
Ю 5 20 км н/о -1.3 -2.9 89 -8 -8 тепло 1013.4 1009.2
Ю 5 6000 м слаб. снег 10/10 300 м
[Sc As trans Ci sp]
-1.5 -2.9 90 -8 -8 по сезону 1012.8 1008.6
Ю 6 5000 м н/о -1.5 -2.9 90 -9 -9 по сезону 1012.1 1007.9 0.1
Ю 5 6000 м н/о -1.6 -3.0 90 -8 -8 тепло 1012.0 1007.8
Ю 4 4600 м слаб. снег {метель} 10/10 200 м
[Sc Cc]
-1.8 -2.8 93 -8 -8 по сезону 1012.0 1007.8 0.1
Ю 5 4900 м н/о -1.7 -2.8 92 -8 -8 по сезону 1011.6 1007.4 0.1
Ю 4 5000 м н/о -1.8 -2.8 93 -8 -8 тепло 1011.5 1007.3 0.1
Ю 4 10 км слаб. снег {метель} 10/10 200 м
[Sc Cs]
-1.8 -2.8 93 -8 -8 по сезону 1011.6 1007.4 -2.6 -1.1 0.1 9
Ю 4 5000 м н/о -1.8 -2.6 94 -8 -8 по сезону 1011.8 1007.6 0.2
Ю 4 2900 м н/о -1.7 -2.5 94 -8 -8 тепло 1011.8 1007.5 0.1
Ю 4 13 км слаб. снег {метель} 10/10 200 м
[Sc Cs]
-1.6 -2.9 91 -8 -7 по сезону 1011.8 1007.6 0.2
Ю 4 15 км н/о -1.6 -3.0 90 -7 -7 тепло 1011.5 1007.3
Ю 3 7000 м н/о -1.6 -2.9 91 -7 -7 тепло 1011.5 1007.3
Ю 3 30 км слаб. снег {метель} 10/10 200 м
[Sc Cc]
-1.5 -2.8 91 -7 -7 по сезону 1011.5 1007.3
Ю 3 29 км н/о -1.3 -2.6 91 -6 -6 тепло 1011.6 1007.3
Ю 2 28 км н/о -1.4 -2.4 93 -5 -5 тепло 1011.7 1007.5
Ю 2 29 км 10/10 200 м
[Frnb Cs]
-1.5 -2.4 94 -6 -6 по сезону 1011.4 1007.1
Ю 3 29 км н/о -1.7 -2.4 95 -7 -7 тепло 1011.1 1006.9
ЮВ 4 13 км н/о -2.3 -2.7 97 -8 -8 тепло 1010.8 1006.5
ЮВ 5 11 км 10/10 50 м
[Frnb Ci ing]
-2.4 -2.6 99 -9 -9 по сезону 1010.2 1006.0 -2.4 -1.2
ЮВ 5 19 км н/о -1.9 -2.4 96 -9 -9 по сезону 1010.0 1005.8
Ю 5 25 км н/о -1.8 -2.7 94 -8 -8 тепло 1009.8 1005.6
ЮВ 5 21 км 10/10 100 м
[Frnb Cs]
-1.8 -2.6 94 -8 -8 по сезону 1009.0 1004.8
Ю 5 30 км н/о -1.6 -2.9 91 -8 -8 по сезону 1008.7 1004.5
ЮВ 6 35 км н/о -1.8 -3.6 87 -9 -9 тепло 1007.9 1003.7
ЮВ 6 35 км 10/10 300 м
[Frnb As trans Ci sp]
-1.7 -3.6 87 -9 -9 по сезону 1007.0 1002.8
ЮВ 6 35 км н/о -1.7 -3.4 88 -9 -9 по сезону 1006.1 1001.9
ЮВ 6 5000 м н/о -1.7 -3.1 90 -9 -9 тепло 1005.0 1000.8
ЮВ 6 3400 м слаб. снег {метель} 10/10 100 м
[Sc Cs]
-1.8 -2.9 92 -9 -9 по сезону 1004.1 999.9 0.3
ЮВ 6 5000 м н/о -1.5 -2.7 92 -9 -9 по сезону 1003.2 999.0 0.1
ЮВ 6 4600 м н/о -1.3 -2.4 92 -8 -8 тепло 1002.4 998.3 0.3
ЮВ 6 4500 м слаб. снег {метель} 10/10 200 м
[Sc Cc]
-1.1 -2.2 92 -8 -8 по сезону 1001.8 997.6 -2.4 -1.0 0.1 9
ЮВ 7 3200 м н/о -0.9 -1.8 94 -8 -8 по сезону 1001.4 997.3 0.3
ЮВ 6 3400 м н/о -0.7 -1.5 94 -8 -8 тепло 1001.2 997.0 0.2
ЮВ 7 6000 м слаб. снег {метель} 10/10 200 м
[Sc Cs]
-0.3 -1.4 92 -8 -8 по сезону 1000.8 996.7 0.2
ЮВ 6 7000 м н/о -0.2 -1.4 92 -7 -7 тепло 1000.5 996.3 0.1
ЮВ 6 7000 м н/о -0.2 -1.5 91 -7 -7 тепло 1000.3 996.1 0.2
Ю 5 14 км слаб. снег {метель} 10/10 300 м
[Frnb As trans]
-0.3 -1.4 92 -7 -6 по сезону 1000.2 996.1 0.1
Ю 6 12 км н/о -0.5 -1.5 93 -7 -7 по сезону 1000.2 996.1
ЮВ 5 13 км н/о -0.7 -1.7 93 -7 -7 тепло 1000.3 996.2
ЮВ 6 н/о слаб. снег {дождь} 10/10 200 м
[Sc Cs]
-0.9 -1.9 93 -8 -8 по сезону 1000.6 996.5 0.1
ЮВ 6 5000 м н/о -1.0 -2.0 93 -8 -8 по сезону 1000.8 996.6 0.2
ЮВ 6 5000 м н/о -1.3 -2.4 92 -8 -8 тепло 1001.0 996.9 0.2
ЮВ 5 4700 м слаб. снег {дождь} 10/10 200 м
[Sc Cs]
-1.7 -2.6 94 -8 -8 по сезону 1001.5 997.3 -1.7 -0.1 0.3
ЮВ 5 10 км н/о -1.8 -2.9 92 -8 -8 по сезону 1002.0 997.8 0.3
ЮВ 5 4100 м н/о -2.0 -3.1 92 -9 -9 тепло 1002.6 998.4 0.1
ЮВ 5 3500 м снег {метель} 10/10 100 м
[Sc Cs]
-2.2 -3.0 94 -9 -9 по сезону 1003.0 998.9 0.3
ЮВ 5 6000 м н/о -2.1 -3.1 93 -9 -9 по сезону 1003.6 999.4 0.2
ЮВ 5 6000 м н/о -2.2 -3.2 93 -9 -9 тепло 1003.8 999.6 0.2
ЮВ 4 6000 м слаб. снег {метель} 10/10 200 м
[Sc Cs]
-2.2 -2.2 100 1004.2 1000.0 0.6
В 5 3400 м н/о -2.2 -3.2 93 -9 -9 по сезону 1004.6 1000.5 0.1
В 4 7000 м н/о -2.2 -3.3 92 -8 -8 тепло 1004.9 1000.7 0.2
В 4 3800 м слаб. снег {метель} 10/10 200 м
[Sc Cs]
-2.2 -3.2 93 -8 -8 по сезону 1005.2 1001.0 0.3
В 4 3900 м н/о -2.2 -3.0 94 -8 -8 по сезону 1005.5 1001.3 0.3
В 5 15 км н/о -2.0 -3.2 91 -9 -9 тепло 1006.0 1001.8 0.2
В 4 9000 м слаб. снег {метель} 10/10 300 м
[Sc As trans]
-1.9 -3.2 91 -8 -8 по сезону 1006.4 1002.2 -2.3 -1.7 0.1 14
В 5 8000 м н/о -1.9 -3.2 91 -9 -9 по сезону 1007.2 1003.0 0.1
В 4 7000 м н/о -1.9 -3.2 91 -8 -8 тепло 1007.9 1003.7 0.1
В 5 13 км слаб. снег {метель} 10/10 300 м
[Sc As trans Ci fib]
-2.3 -3.9 89 -9 -9 по сезону 1008.6 1004.4 0.2
В 4 7000 м н/о -2.8 -4.2 90 -9 -9 по сезону 1009.3 1005.0
В 5 25 км н/о -3.4 -5.0 89 -10 -10 тепло 1009.8 1005.6
В 5 20 км позёмок {снег} 10/10 100 м
[Frnb Cs]
-3.9 -4.9 93 -11 -11 прохладно 1010.0 1005.8
В 4 13 км н/о -3.8 -4.4 96 -10 -10 по сезону 1010.3 1006.1
В 5 16 км н/о -4.2 -5.3 92 -11 -11 тепло 1011.0 1006.8
В 7 16 км позёмок 10/10 200 м
[Frnb Cs]
-4.7 -6.0 91 -13 -13 холодно 1011.5 1007.2
В 5 17 км н/о -4.8 -6.2 90 -12 -12 по сезону 1012.1 1007.8
В 4 17 км н/о -5.3 -6.7 90 -12 -12 тепло 1012.8 1008.5
В 4 17 км слаб. снег {метель} 10/10 200 м
[Frnb Cs]
-5.8 -7.3 89 -12 -12 прохладно 1013.2 1009.0 -5.8 -1.8
В 4 17 км н/о -6.1 -7.6 89 -13 -13 по сезону 1013.9 1009.6
В 3 16 км н/о -6.5 -7.9 90 -12 -12 тепло 1014.3 1010.0
В 3 17 км слаб. снег {метель} 9/9 200 м
[Frnb Cs]
-6.8 -8.4 88 -13 -13 холодно 1014.6 1010.3
В 4 17 км н/о -6.9 -8.7 87 -14 -14 по сезону 1015.2 1010.9
В 4 19 км н/о -6.6 -8.5 86 -13 -13 тепло 1015.2 1010.9
В 3 18 км слаб. снег {метель} 10/10 300 м
[Frnb As trans Ci sp]
-6.1 -8.0 86 -12 -12 прохладно 1015.4 1011.1
В 4 17 км н/о -5.6 -7.2 88 -12 -12 по сезону 1015.7 1011.4
В 3 10 км н/о -5.6 -6.6 93 -11 -11 тепло 1015.8 1011.6
В 4 8000 м слаб. снег 10/10 100 м
[Frnb Cs]
-5.0 -5.9 93 -12 -12 прохладно 1016.2 1011.9
В 3 12 км н/о -4.9 -6.0 92 -10 -10 по сезону 1016.2 1011.9
СВ 5 26 км н/о -3.3 -6.0 82 -10 -10 тепло 1016.2 1011.9
В 6 35 км в посл. час крупа 6/6 300 м
[Cb cap As trans Cs]
-4.1 -7.9 75 -12 -12 прохладно 1016.4 1012.2 -7.0 -3.0 13
В 4 30 км н/о -6.4 -8.2 87 -13 -13 по сезону 1017.2 1012.9
В 2 28 км н/о -6.5 -8.2 88 -11 -11 тепло 1017.8 1013.4
В 2 13 км слаб. ливневой снег 9/8 300 м
[Frnb As trans Ci ing]
-5.5 -7.4 86 -10 -10 прохладно 1018.1 1013.8
СВ 5-9
{9}
2700 м {снег} н/о -4.7 -5.4 95 -12 -12 по сезону 1018.4 1014.1 -7.0 -3.0 0.5
СВ 5 12 км н/о -5.7 -6.5 94 -13 -13 по сезону 1018.5 1014.2
СВ 4 15 км позёмок {ливн. снег} 10/10 100 м
[Frnb Cs]
-6.8 -8.0 91 -14 -13 холодно 1018.6 1014.3 0.5
СВ 4 10 км н/о -7.5 -8.2 95 -14 -14 по сезону 1018.6 1014.3
СВ 3 9000 м н/о -7.7 -8.5 94 -14 -14 по сезону 1018.7 1014.4
СВ 3 12 км слаб. снег {метель} 10/10 100 м
[Sc Cs]
-7.8 -8.9 92 -14 -14 холодно 1018.5 1014.2
СВ 5 5000 м н/о -8.6 -9.9 90 -16 -16 прохладно 1018.6 1014.2
СВ 4 3200 м н/о -9.3 -11.0 87 -16 -16 по сезону 1018.6 1014.2
СВ 5 3700 м слаб. снег {метель} 10/10 200 м
[Sc As trans]
-9.9 -12.1 84 -18 -18 очень
холодно
1018.7 1014.4 -9.9 -4.1 0.1
СВ 4 4800 м н/о -10.1 -12.2 85 -17 -17 прохладно 1018.6 1014.3
СВ 4 5000 м н/о -10.2 -12.6 83 -17 -17 по сезону 1018.7 1014.3
СВ 5 4200 м снег 10/10 300 м
[Sc As trans Ci sp]
-10.3 -12.4 85 -18 -18 очень
холодно
1018.7 1014.3
СВ 5 7000 м н/о -10.5 -13.0 82 -18 -18 прохладно 1018.8 1014.5
СВ 4 15 км н/о -10.7 -13.4 80 -18 -18 по сезону 1019.0 1014.7
СВ 4 6000 м слаб. снег 10/10 300 м
[Sc As trans Ci ing]
-10.8 -13.0 84 -18 -18 очень
холодно
1019.0 1014.6
СВ 3 4900 м н/о -11.0 -13.2 84 -17 -17 прохладно 1019.0 1014.6
СВ 4 2700 м н/о -10.8 -12.5 87 -18 -18 по сезону 1018.9 1014.5
СВ 4 3300 м слаб. снег 10/10 300 м
[Sc As trans Ci sp]
-11.1 -13.2 84 -18 -18 очень
холодно
1018.9 1014.5 0.1
СВ 5 6000 м н/о -11.4 -13.6 84 -19 -19 холодно 1019.0 1014.6
СВ 5 5000 м н/о -11.5 -13.7 84 -19 -19 по сезону 1018.8 1014.4
СВ 5 н/о слаб. снег 10/10 300 м
[Sc As trans Ci ing]
-11.4 -14.0 81 -19 -19 очень
холодно
1019.1 1014.7 -11.6 -9.9 19
СВ 5 7000 м н/о -11.7 -14.3 81 -20 -20 холодно 1019.2 1014.8
СВ 5 3300 м н/о -11.6 -13.8 84 -20 -20 по сезону 1019.5 1015.0
СВ 5 7000 м слаб. снег 9/9 300 м
[Sc As trans Ci sp]
-11.8 -14.4 81 -20 -20 очень
холодно
1019.8 1015.3
СВ 5 9000 м н/о -11.5 -14.3 80 -19 -19 холодно 1019.9 1015.5
СВ 4 3300 м н/о -11.2 -13.4 84 -18 -18 по сезону 1019.8 1015.4
СВ 4 3100 м слаб. снег 10/10 300 м
[Sc As trans Ci sp]
-10.9 -12.9 85 -18 -18 очень
холодно
1019.6 1015.2
СВ 4 5000 м н/о -10.7 -12.9 84 -18 -18 холодно 1019.6 1015.2
СВ 4 4700 м н/о -10.6 -12.5 86 -18 -18 по сезону 1019.5 1015.1
С 3 4600 м слаб. снег 10/10 300 м
[Sc As trans Ci sp]
-10.0 -12.1 85 -16 -16 очень
холодно
1019.3 1014.9
С 4 14 км н/о -9.8 -12.6 80 -17 -17 прохладно 1019.3 1015.0
СВ 4 35 км н/о -9.6 -12.4 80 -17 -17 по сезону 1019.1 1014.8
С 3 35 км слаб. снег 10/10 300 м
[Sc As trans Ci sp]
-9.4 -11.9 82 -15 -15 очень
холодно
1018.9 1014.5 -11.9 -9.4
С 3 7000 м н/о -9.3 -11.4 85 -15 -15 по сезону 1018.6 1014.3
С 2 9000 м н/о -8.3 -10.3 85 -13 -13 по сезону 1018.2 1013.9 0.1
С 2 13 км слаб. снег 10/10 300 м
[Sc As trans Ci sp]
-7.9 -9.8 86 -12 -12 прохладно 1017.8 1013.5 0.1
С 2 10 км н/о -7.5 -9.0 89 -12 -12 по сезону 1017.2 1012.9 0.2
24 км н/о -7.3 -8.9 88 1016.7 1012.4 0.1
С 3 2000 м слаб. снег 10/10 200 м
[Sc Cc]
-7.0 -8.2 91 -13 -13 холодно 1016.0 1011.7 0.3
С 3 1100 м н/о -7.0 -8.2 91 -13 -13 по сезону 1015.6 1011.2 0.3
СВ 3 4200 м {снег} н/о -7.1 -8.5 90 -13 -13 по сезону 1015.7 1011.4 -10.6 -6.8 1
В 3 8000 м слаб. снег 10/10 300 м
[Sc As trans Ci ing]
-7.1 -8.8 88 -13 -13 холодно 1015.8 1011.5 0.7
В 3 8000 м н/о -7.3 -9.1 87 -13 -13 по сезону 1016.2 1011.8
В 4 9000 м н/о -7.8 -9.6 87 -15 -15 по сезону 1016.4 1012.1
В 3 22 км слаб. снег 10/10 300 м
[Sc As trans Ci ing]
-8.1 -10.3 84 -14 -14 холодно 1017.2 1012.8 -9.5 -6.8 23
В 3 24 км н/о -8.2 -10.7 82 -14 -14 по сезону 1017.6 1013.3
В 3 11 км н/о -8.2 -10.9 81 -14 -14 по сезону 1018.2 1013.8
В 3 15 км слаб. ливневой снег 9/9 600 м
[Cb cap As op Cs]
-8.6 -11.0 83 -14 -14 холодно 1018.5 1014.2
ЮВ 2 22 км н/о -8.7 -11.1 83 -13 -13 по сезону 1018.9 1014.6
ЮВ 2 7000 м н/о -9.3 -11.5 84 -14 -14 по сезону 1019.1 1014.7
ЮВ 1 24 км слаб. снег 8/5 300 м
[St As trans Cs]
-10.4 -13.1 81 -13 -13 холодно 1019.2 1014.8
Ю 1 11 км н/о -11.1 -12.9 87 -13 -13 по сезону 1019.6 1015.2
Ю 1 4100 м н/о -10.8 -12.6 87 -13 -13 по сезону 1019.7 1015.3
ЮЗ 1 6000 м слаб. ливневой снег 8/8 600 м
[Cb cap As op Ci fib]
-10.6 -12.2 88 -13 -13 холодно 1020.1 1015.7
ЮЗ 1 10 км н/о -10.8 -12.4 88 -13 -13 по сезону 1019.9 1015.5
ЮЗ 1 11 км н/о -10.8 -12.2 89 -13 -13 по сезону 1019.8 1015.4
ЮЗ 1 13 км слаб. снег 9/9 300 м
[Frnb As trans Cs]
-11.3 -12.7 89 -14 -14 холодно 1020.0 1015.6 -11.7 -8.0
ЮЗ 1 13 км н/о -11.9 -13.0 92 -14 -14 по сезону 1020.3 1015.9
ЮЗ 2 11 км н/о -13.3 -14.2 93 -18 -18 по сезону 1020.6 1016.2
ЮЗ 1 15 км 9/9 300 м
[Frnb As trans Ci]
-12.2 -13.6 89 -14 -14 холодно 1020.9 1016.4
ЮЗ 1 17 км н/о -11.0 -12.3 90 -13 -13 по сезону 1020.5 1016.1
ЮЗ 1 17 км н/о -11.1 -12.6 89 -13 -13 по сезону 1020.4 1016.0
ЮЗ 2 17 км 9/9 300 м
[Frnb As trans Ci ing]
-10.7 -12.2 89 -15 -15 очень
холодно
1020.1 1015.7
ЮЗ 2 23 км н/о -10.6 -12.2 88 -15 -15 по сезону 1020.1 1015.7
ЮЗ 2 25 км н/о -11.9 -13.2 90 -16 -16 по сезону 1020.0 1015.6
ЮЗ 2 26 км 6/4 1500 м
[Ac und Cs]
-12.3 -13.7 89 -17 -17 очень
холодно
1019.9 1015.5
ЮЗ 2 30 км н/о -11.4 -13.1 87 -16 -16 прохладно 1019.6 1015.2
ЮЗ 2 27 км н/о -11.7 -13.1 89 -16 -16 по сезону 1019.5 1015.1
ЮЗ 2 24 км 4/0
[Ac trans Ci fib]
-12.2 -13.3 91 -17 -17 очень
холодно
1019.5 1015.1 -14.1 -10.4 18
ЮЗ 1 23 км н/о -13.0 -14.1 91 -15 -15 по сезону 1019.7 1015.3
ЮЗ 2 22 км н/о -12.0 -13.2 91 -17 -17 по сезону 1019.8 1015.4
21 км н/о -10.6 -11.9 90 -15 -15 очень
холодно
1019.9 1015.5
Местоположение метеостанции Таллин (Эстония): широта 59.41 долгота 24.83 высота над уровнем моря 34 м.
В архиве по умолчанию представлена погода в Таллине за последнюю неделю. Архивные данные за месяц целиком и за предыдущие месяцы, начиная с января 2011 года, Вы можете получить, выбрав интересующий диапазон дат из раскрывающегося списка и нажав кнопку "Найти!".
*Определитесь, кто Вы:
Внимание! Время в таблицах - всемирное. Для получения местного времени необходимо прибавить поправку, которая равна 2 ч.
Смотрите также архив погоды в соседних городах и на ближайших метеорологических станциях:
Партнеры нашего сайта:      
Пояснения к столбцам:
  • Ветер - указаны скорость ветра в м/с - средняя за 10 мин, порывы в срок и между сроками (в фигурных скобках) и направление, откуда дует ветер: С - северный,
  • СВ - северо-восточный, В - восточный, ЮВ - юго-восточный, Ю - южный, ЮЗ - юго-западный, З - западный, СЗ - северо-западный.
  • Видимость - горизонтальная дальность видимости в метрах или километрах. При видимости от 1 до 10 км при отсутствии осадков обычно наблюдается дымка, при ухудшении видимости до 1 км и менее - туман. В сухую погоду видимость может ухудшаться дымом, пылью или мглою.
  • Явления - указаны атмосферные явления, наблюдавшиеся в срок или в последний час перед сроком; фигурными скобками обозначены явления, наблюдавшиеся между сроками (за 1-3 часа до срока); квадратными скобками обозначены град или гололедные отложения с указанием их диаметра в мм.
  • Облачность - указаны через наклонную черту общая и нижняя облачность в баллах и высота нижней границы облаков в метрах; квадратными скобками обозначены формы облаков: Ci - перистые, Cs - перисто-слоистые, Cc - перисто-кучевые, Ac - высококучевые, As - высокослоистые, Sc - слоисто-кучевые, Ns - слоисто-дождевые, Cu - кучевые, Cb - кучево-дождевые. Подробнее классификацию облаков см. в Атласе облаков (PDF).
  • T - Температура воздуха - температура, измеренная на высоте 2 м над землей.
  • Td - Температура точки росы - температура, при понижении до которой содержащийся в воздухе водяной пар достигнет насыщения.
  • f - Относительная влажность воздуха - влажноcть воздуха, измеренная на высоте 2 м над землей.
  • Te - Эффективная температура - температура, которую ощущает одетый по сезону человек в тени. Характеристика душности погоды. При расчете учитывается влияние влажности воздуха и скорости ветра на теплоощущения человека.
  • Tes - Эффективная температура на солнце - температура, которую ощущает человек, с поправкой на солнечный нагрев. Характеристика знойности погоды. Зависит от высоты солнца над горизонтом, облачности и скорости ветра. Ночью, в пасмурную погоду, а также при ветре 12 м/с и более поправка равна нулю.
  • P - Атмосферное давление - приведенное к уровню моря атмосферное давление.
  • Po - Атмосферное давление - измеренное на уровне метеостанции атмосферное давление.
  • Tmin - Минимальная температура - минимум температуры воздуха на высоте 2 м над землей.
  • Tmax - Максимальная температура - максимум температуры воздуха на высоте 2 м над землей.
  • R - Количество осадков - Количество выпавших осадков за период времени, мм. При наведении курсора мыши на число - период времени, за который выпало указанное количество осадков.
  • R24 - Количество осадков - Количество выпавших осадков за 24 часа, мм.
  • S - Снежный покров - Высота снежного покрова, см. При наведении курсора мыши на число - состояние снежного покрова и степень покрытия местности в баллах.